| time (UTC) | temp F | wind direction | speed MPH | gust MPH | rain 1hr in | rain 24hr in | rain mn in | humidity % | barometer mb |
| 20260831110106 | 77 | 186 | 2.0 | 8.0 | 0.00 | 0.00 | 0.00 | 89 | 1017.0 |
| 20260831105549 | 77 | 200 | 2.0 | 8.0 | 0.00 | 0.00 | 0.00 | 89 | 1016.9 |
| 20260831105049 | 77 | 178 | 2.0 | 6.0 | 0.00 | 0.00 | 0.00 | 89 | 1016.9 |
| 20260831104603 | 77 | 185 | 1.0 | 7.0 | 0.00 | 0.00 | 0.00 | 89 | 1017.0 |
| 20260831104045 | 77 | 178 | 2.0 | 7.0 | 0.00 | 0.00 | 0.00 | 89 | 1017.0 |
| 20260831103548 | 77 | 205 | 2.0 | 7.0 | 0.00 | 0.00 | 0.00 | 89 | 1017.0 |
| 20260831103109 | 77 | 206 | 1.0 | 4.0 | 0.00 | 0.00 | 0.00 | 89 | 1017.1 |
| 20260831102546 | 77 | 134 | 1.0 | 4.0 | 0.00 | 0.00 | 0.00 | 88 | 1017.0 |
| 20260831102046 | 77 | 194 | 1.0 | 5.0 | 0.00 | 0.00 | 0.00 | 88 | 1017.0 |
| 20260831101601 | 77 | 152 | 2.0 | 5.0 | 0.00 | 0.00 | 0.00 | 88 | 1017.0 |
| 20260831101048 | 77 | 165 | 2.0 | 7.0 | 0.00 | 0.00 | 0.00 | 88 | 1017.0 |
| 20260831100551 | 77 | 159 | 2.0 | 7.0 | 0.00 | 0.00 | 0.00 | 88 | 1017.1 |
| 20260831100104 | 77 | 182 | 1.0 | 6.0 | 0.00 | 0.00 | 0.00 | 88 | 1017.1 |
| 20260831095550 | 77 | 0 | 1.0 | 6.0 | 0.00 | 0.00 | 0.00 | 88 | 1017.1 |
| 20260831095046 | 77 | 169 | 2.0 | 5.0 | 0.00 | 0.00 | 0.00 | 88 | 1017.1 |
| 20260831094606 | 77 | 0 | 0.0 | 3.0 | 0.00 | 0.00 | 0.00 | 88 | 1017.1 |
| 20260831094046 | 77 | 137 | 1.0 | 5.0 | 0.00 | 0.00 | 0.00 | 88 | 1017.1 |
| 20260831093546 | 77 | 151 | 1.0 | 6.0 | 0.00 | 0.00 | 0.00 | 87 | 1017.1 |
| 20260831093149 | 77 | 0 | 2.0 | 6.0 | 0.00 | 0.00 | 0.00 | 87 | 1017.0 |
| 20260831092549 | 77 | 178 | 2.0 | 5.0 | 0.00 | 0.00 | 0.00 | 87 | 1017.1 |
| 20260831092049 | 77 | 140 | 2.0 | 6.0 | 0.00 | 0.00 | 0.00 | 87 | 1017.1 |
| 20260831091556 | 77 | 170 | 2.0 | 6.0 | 0.00 | 0.00 | 0.00 | 87 | 1017.0 |
| 20260831091049 | 77 | 138 | 2.0 | 5.0 | 0.00 | 0.00 | 0.00 | 87 | 1017.0 |
| 20260831090549 | 77 | 133 | 1.0 | 5.0 | 0.00 | 0.00 | 0.00 | 87 | 1017.0 |
| 20260831090100 | 77 | 159 | 2.0 | 7.0 | 0.00 | 0.00 | 0.00 | 87 | 1017.1 |
| 20260831085549 | 77 | 173 | 2.0 | 7.0 | 0.00 | 0.00 | 0.00 | 87 | 1017.0 |
| 20260831085049 | 77 | 159 | 1.0 | 6.0 | 0.00 | 0.00 | 0.00 | 87 | 1017.0 |
| 20260831084638 | 77 | 188 | 1.0 | 6.0 | 0.00 | 0.00 | 0.00 | 87 | 1017.1 |
| 20260831084049 | 77 | 159 | 2.0 | 5.0 | 0.00 | 0.00 | 0.00 | 87 | 1017.1 |
| 20260831083550 | 77 | 174 | 2.0 | 4.0 | 0.00 | 0.00 | 0.00 | 87 | 1017.0 |
| 20260831083109 | 76 | 0 | 2.0 | 6.0 | 0.00 | 0.00 | 0.00 | 86 | 1017.1 |
| 20260831082552 | 76 | 149 | 1.0 | 6.0 | 0.00 | 0.00 | 0.00 | 86 | 1017.1 |
| 20260831082050 | 76 | 162 | 1.0 | 4.0 | 0.00 | 0.00 | 0.00 | 85 | 1017.1 |
| 20260831081558 | 76 | 145 | 1.0 | 5.0 | 0.00 | 0.00 | 0.00 | 84 | 1017.2 |
| 20260831081050 | 76 | 0 | 0.0 | 5.0 | 0.00 | 0.00 | 0.00 | 84 | 1017.1 |
| 20260831080549 | 76 | 140 | 0.0 | 3.0 | 0.00 | 0.00 | 0.00 | 83 | 1017.2 |
| 20260831080117 | 76 | 0 | 0.0 | 1.0 | 0.00 | 0.00 | 0.00 | 83 | 1017.2 |
| 20260831075549 | 76 | 167 | 0.0 | 1.0 | 0.00 | 0.00 | 0.00 | 82 | 1017.2 |
| 20260831075049 | 77 | 0 | 0.0 | 1.0 | 0.00 | 0.00 | 0.00 | 82 | 1017.2 |
| 20260831074604 | 77 | 0 | 0.0 | 0.0 | 0.00 | 0.00 | 0.00 | 81 | 1017.2 |
| 20260831074052 | 77 | 0 | 0.0 | 3.0 | 0.00 | 0.00 | 0.00 | 81 | 1017.1 |
| 20260831073546 | 77 | 0 | 0.0 | 3.0 | 0.00 | 0.00 | 0.00 | 81 | 1017.1 |
| 20260831073059 | 77 | 167 | 0.0 | 5.0 | 0.00 | 0.00 | 0.00 | 81 | 1017.2 |
| 20260831072551 | 77 | 0 | 0.0 | 5.0 | 0.00 | 0.00 | 0.00 | 81 | 1017.2 |
| 20260831072049 | 77 | 0 | 1.0 | 5.0 | 0.00 | 0.00 | 0.00 | 80 | 1017.2 |
| 20260831071608 | 78 | 145 | 0.0 | 5.0 | 0.00 | 0.00 | 0.00 | 80 | 1017.2 |
| 20260831071049 | 78 | 0 | 1.0 | 5.0 | 0.00 | 0.00 | 0.00 | 79 | 1017.2 |
| 20260831070548 | 78 | 0 | 0.0 | 2.0 | 0.00 | 0.00 | 0.00 | 79 | 1017.2 |
| 20260831070057 | 78 | 0 | 0.0 | 4.0 | 0.00 | 0.00 | 0.00 | 79 | 1017.3 |
| 20260831065553 | 78 | 159 | 0.0 | 4.0 | 0.00 | 0.00 | 0.00 | 79 | 1017.3 |
| 20260831065049 | 78 | 142 | 1.0 | 4.0 | 0.00 | 0.00 | 0.00 | 78 | 1017.3 |
| 20260831064606 | 78 | 201 | 1.0 | 4.0 | 0.00 | 0.00 | 0.00 | 78 | 1017.4 |
| 20260831064046 | 78 | 169 | 1.0 | 10.0 | 0.00 | 0.00 | 0.00 | 78 | 1017.5 |
| 20260831063546 | 79 | 178 | 2.0 | 10.0 | 0.00 | 0.00 | 0.00 | 77 | 1017.5 |
| 20260831063111 | 79 | 0 | 2.0 | 6.0 | 0.00 | 0.00 | 0.00 | 77 | 1017.4 |
| 20260831062546 | 79 | 0 | 0.0 | 4.0 | 0.00 | 0.00 | 0.00 | 77 | 1017.4 |
| 20260831062050 | 79 | 0 | 0.0 | 5.0 | 0.00 | 0.00 | 0.00 | 77 | 1017.4 |
| 20260831061558 | 79 | 154 | 1.0 | 7.0 | 0.00 | 0.00 | 0.00 | 76 | 1017.4 |
| 20260831061050 | 79 | 159 | 2.0 | 7.0 | 0.00 | 0.00 | 0.00 | 76 | 1017.4 |
| 20260831060549 | 79 | 155 | 1.0 | 6.0 | 0.00 | 0.00 | 0.00 | 76 | 1017.4 |
| 20260831060127 | 79 | 133 | 2.0 | 7.0 | 0.00 | 0.00 | 0.00 | 76 | 1017.3 |
| 20260831055551 | 79 | 138 | 1.0 | 9.0 | 0.00 | 0.00 | 0.00 | 75 | 1017.2 |
| 20260831055049 | 80 | 148 | 3.0 | 9.0 | 0.00 | 0.00 | 0.00 | 75 | 1017.2 |
| 20260831054556 | 80 | 167 | 1.0 | 4.0 | 0.00 | 0.00 | 0.00 | 75 | 1017.1 |
| 20260831054049 | 80 | 121 | 1.0 | 5.0 | 0.00 | 0.00 | 0.00 | 74 | 1017.0 |
| 20260831053549 | 80 | 161 | 2.0 | 5.0 | 0.00 | 0.00 | 0.00 | 74 | 1017.0 |
| 20260831053108 | 80 | 136 | 2.0 | 7.0 | 0.00 | 0.00 | 0.00 | 73 | 1016.9 |
| 20260831052550 | 80 | 165 | 1.0 | 7.0 | 0.00 | 0.00 | 0.00 | 73 | 1016.9 |
| 20260831052049 | 81 | 159 | 2.0 | 5.0 | 0.00 | 0.00 | 0.00 | 73 | 1016.9 |
| 20260831051600 | 81 | 165 | 1.0 | 7.0 | 0.00 | 0.00 | 0.00 | 72 | 1016.9 |
| 20260831051049 | 81 | 135 | 2.0 | 7.0 | 0.00 | 0.00 | 0.00 | 72 | 1016.8 |
| 20260831050550 | 81 | 136 | 3.0 | 7.0 | 0.00 | 0.00 | 0.00 | 71 | 1016.8 |
| 20260831050118 | 81 | 144 | 3.0 | 7.0 | 0.00 | 0.00 | 0.00 | 71 | 1016.8 |
| 20260831045549 | 82 | 133 | 2.0 | 8.0 | 0.00 | 0.00 | 0.00 | 70 | 1016.8 |
| 20260831045048 | 82 | 138 | 4.0 | 10.0 | 0.00 | 0.00 | 0.00 | 70 | 1016.7 |
| 20260831044607 | 82 | 148 | 2.0 | 10.0 | 0.00 | 0.00 | 0.00 | 69 | 1016.8 |
| 20260831044053 | 82 | 136 | 3.0 | 7.0 | 0.00 | 0.00 | 0.00 | 69 | 1016.8 |
| 20260831043548 | 82 | 140 | 3.0 | 8.0 | 0.00 | 0.00 | 0.00 | 68 | 1016.8 |
| 20260831043100 | 82 | 153 | 3.0 | 8.0 | 0.00 | 0.00 | 0.00 | 68 | 1016.7 |
| 20260831042546 | 82 | 144 | 2.0 | 7.0 | 0.00 | 0.00 | 0.00 | 67 | 1016.8 |
| 20260831042049 | 83 | 143 | 1.0 | 7.0 | 0.00 | 0.00 | 0.00 | 67 | 1016.8 |
| 20260831041558 | 83 | 136 | 2.0 | 7.0 | 0.00 | 0.00 | 0.00 | 67 | 1016.7 |
| 20260831041049 | 83 | 0 | 2.0 | 7.0 | 0.00 | 0.00 | 0.00 | 66 | 1016.7 |
| 20260831040550 | 83 | 146 | 1.0 | 7.0 | 0.00 | 0.00 | 0.00 | 66 | 1016.7 |
| 20260831035550 | 84 | 151 | 2.0 | 7.0 | 0.00 | 0.00 | 0.00 | 66 | 1016.6 |
| 20260831035049 | 84 | 165 | 3.0 | 9.0 | 0.00 | 0.00 | 0.00 | 65 | 1016.5 |
| 20260831034613 | 84 | 146 | 4.0 | 10.0 | 0.00 | 0.00 | 0.00 | 65 | 1016.5 |
| 20260831034048 | 84 | 142 | 4.0 | 10.0 | 0.00 | 0.00 | 0.00 | 65 | 1016.5 |
| 20260831033551 | 84 | 180 | 3.0 | 11.0 | 0.00 | 0.00 | 0.00 | 65 | 1016.4 |
| 20260831033107 | 84 | 129 | 3.0 | 11.0 | 0.00 | 0.00 | 0.00 | 65 | 1016.4 |
| 20260831032550 | 84 | 131 | 4.0 | 11.0 | 0.00 | 0.00 | 0.00 | 64 | 1016.3 |
| 20260831032048 | 84 | 118 | 4.0 | 10.0 | 0.00 | 0.00 | 0.00 | 64 | 1016.3 |
| 20260831031602 | 84 | 132 | 5.0 | 10.0 | 0.00 | 0.00 | 0.00 | 64 | 1016.3 |
| 20260831031048 | 84 | 154 | 3.0 | 9.0 | 0.00 | 0.00 | 0.00 | 64 | 1016.2 |
| 20260831030546 | 84 | 137 | 2.0 | 6.0 | 0.00 | 0.00 | 0.00 | 64 | 1016.1 |
| 20260831030106 | 84 | 170 | 0.0 | 3.0 | 0.00 | 0.00 | 0.00 | 64 | 1016.0 |
| 20260831025549 | 85 | 128 | 0.0 | 2.0 | 0.00 | 0.00 | 0.00 | 63 | 1015.9 |
| 20260831025045 | 85 | 0 | 0.0 | 2.0 | 0.00 | 0.00 | 0.00 | 63 | 1015.8 |
| 20260831024601 | 85 | 0 | 0.0 | 2.0 | 0.00 | 0.00 | 0.00 | 62 | 1015.6 |
| 20260831024051 | 85 | 0 | 0.0 | 3.0 | 0.00 | 0.00 | 0.00 | 62 | 1015.4 |
| 20260831023549 | 86 | 0 | 0.0 | 3.0 | 0.00 | 0.00 | 0.00 | 61 | 1015.3 |
| 20260831023106 | 86 | 0 | 0.0 | 3.0 | 0.00 | 0.00 | 0.00 | 61 | 1015.2 |
| 20260831022549 | 86 | 0 | 0.0 | 5.0 | 0.00 | 0.00 | 0.00 | 61 | 1015.0 |
| 20260831022046 | 86 | 161 | 1.0 | 5.0 | 0.00 | 0.00 | 0.00 | 60 | 1014.9 |
| 20260831021606 | 86 | 126 | 2.0 | 7.0 | 0.00 | 0.00 | 0.00 | 60 | 1014.9 |
| 20260831021046 | 86 | 0 | 3.0 | 7.0 | 0.00 | 0.00 | 0.00 | 60 | 1014.7 |
| 20260831020546 | 86 | 170 | 3.0 | 7.0 | 0.00 | 0.00 | 0.00 | 59 | 1014.6 |
| 20260831015545 | 87 | 90 | 2.0 | 6.0 | 0.00 | 0.00 | 0.00 | 58 | 1014.6 |
| 20260831015050 | 87 | 142 | 2.0 | 7.0 | 0.00 | 0.00 | 0.00 | 57 | 1014.6 |
| 20260831014612 | 87 | 136 | 2.0 | 7.0 | 0.00 | 0.00 | 0.00 | 57 | 1014.6 |
| 20260831014049 | 87 | 129 | 2.0 | 6.0 | 0.00 | 0.00 | 0.00 | 56 | 1014.5 |
| 20260831013549 | 87 | 0 | 2.0 | 9.0 | 0.00 | 0.00 | 0.00 | 55 | 1014.5 |
| 20260831013107 | 87 | 107 | 4.0 | 9.0 | 0.00 | 0.00 | 0.00 | 55 | 1014.5 |
| 20260831012550 | 87 | 178 | 3.0 | 7.0 | 0.00 | 0.00 | 0.00 | 55 | 1014.4 |
| 20260831012051 | 86 | 136 | 0.0 | 2.0 | 0.00 | 0.00 | 0.00 | 54 | 1014.3 |
| 20260831011605 | 87 | 0 | 0.0 | 0.0 | 0.00 | 0.00 | 0.00 | 52 | 1014.3 |
| 20260831011046 | 88 | 0 | 0.0 | 0.0 | 0.00 | 0.00 | 0.00 | 51 | 1014.2 |
| 20260831010549 | 88 | 0 | 0.0 | 1.0 | 0.00 | 0.00 | 0.00 | 51 | 1014.1 |
| 20260831010107 | 89 | 0 | 0.0 | 1.0 | 0.00 | 0.00 | 0.00 | 50 | 1014.1 |
| 20260831005550 | 89 | 0 | 0.0 | 3.0 | 0.00 | 0.00 | 0.00 | 49 | 1014.1 |
| 20260831005050 | 90 | 0 | 0.0 | 3.0 | 0.00 | 0.00 | 0.00 | 48 | 1014.1 |
| 20260831004555 | 90 | 0 | 1.0 | 3.0 | 0.00 | 0.00 | 0.00 | 48 | 1014.0 |
| 20260831004050 | 90 | 119 | 1.0 | 4.0 | 0.00 | 0.00 | 0.00 | 47 | 1014.0 |
| 20260831003550 | 91 | 0 | 0.0 | 5.0 | 0.00 | 0.00 | 0.00 | 46 | 1013.9 |
| 20260831003101 | 91 | 101 | 1.0 | 7.0 | 0.00 | 0.00 | 0.00 | 45 | 1014.0 |
| 20260831002545 | 92 | 92 | 2.0 | 7.0 | 0.00 | 0.00 | 0.00 | 45 | 1013.9 |
| 20260831002049 | 92 | 102 | 2.0 | 7.0 | 0.00 | 0.00 | 0.00 | 45 | 1014.0 |
| 20260831001608 | 92 | 128 | 1.0 | 5.0 | 0.00 | 0.00 | 0.00 | 44 | 1014.0 |
| 20260831001049 | 93 | 144 | 1.0 | 5.0 | 0.00 | 0.00 | 0.00 | 44 | 1013.9 |
| 20260831000547 | 93 | 155 | 1.0 | 7.0 | 0.00 | 0.00 | 0.00 | 44 | 1013.9 |
| 20260831000056 | 93 | 66 | 3.0 | 8.0 | 0.00 | 0.00 | 0.00 | 44 | 1013.9 |
| 20260830235548 | 93 | 157 | 2.0 | 8.0 | 0.00 | 0.00 | 0.00 | 43 | 1013.9 |
| 20260830235051 | 93 | 218 | 2.0 | 7.0 | 0.00 | 0.00 | 0.00 | 44 | 1013.9 |
| 20260830234605 | 94 | 183 | 2.0 | 8.0 | 0.00 | 0.00 | 0.00 | 42 | 1014.0 |
| 20260830234049 | 94 | 151 | 2.0 | 8.0 | 0.00 | 0.00 | 0.00 | 43 | 1014.0 |
| 20260830233548 | 94 | 83 | 4.0 | 8.0 | 0.00 | 0.00 | 0.00 | 42 | 1014.0 |
| 20260830233118 | 95 | 167 | 2.0 | 7.0 | 0.00 | 0.00 | 0.00 | 42 | 1014.0 |
| 20260830232549 | 95 | 0 | 2.0 | 8.0 | 0.00 | 0.00 | 0.00 | 43 | 1014.0 |
| 20260830232048 | 94 | 148 | 3.0 | 8.0 | 0.00 | 0.00 | 0.00 | 43 | 1014.0 |
| 20260830231558 | 95 | 183 | 3.0 | 8.0 | 0.00 | 0.00 | 0.00 | 42 | 1014.0 |
| 20260830231049 | 95 | 166 | 2.0 | 11.0 | 0.00 | 0.00 | 0.00 | 43 | 1014.0 |
| 20260830230549 | 95 | 145 | 4.0 | 12.0 | 0.00 | 0.00 | 0.00 | 43 | 1014.0 |
| 20260830230107 | 95 | 136 | 3.0 | 12.0 | 0.00 | 0.00 | 0.00 | 42 | 1014.1 |
| 20260830225548 | 95 | 155 | 5.0 | 11.0 | 0.00 | 0.00 | 0.00 | 43 | 1014.1 |
| 20260830225048 | 96 | 151 | 4.0 | 10.0 | 0.00 | 0.00 | 0.00 | 41 | 1014.1 |
| 20260830224559 | 96 | 169 | 3.0 | 7.0 | 0.00 | 0.00 | 0.00 | 42 | 1014.1 |
| 20260830224048 | 95 | 178 | 3.0 | 7.0 | 0.00 | 0.00 | 0.00 | 42 | 1014.1 |
| 20260830223547 | 95 | 199 | 3.0 | 8.0 | 0.00 | 0.00 | 0.00 | 42 | 1014.1 |
| 20260830223055 | 94 | 163 | 3.0 | 8.0 | 0.00 | 0.00 | 0.00 | 43 | 1014.1 |
| 20260830222547 | 95 | 166 | 4.0 | 10.0 | 0.00 | 0.00 | 0.00 | 42 | 1014.2 |
| 20260830222049 | 93 | 177 | 2.0 | 12.0 | 0.00 | 0.00 | 0.00 | 45 | 1014.3 |
| 20260830221607 | 95 | 165 | 4.0 | 12.0 | 0.00 | 0.00 | 0.00 | 42 | 1014.3 |
| 20260830221046 | 95 | 184 | 5.0 | 10.0 | 0.00 | 0.00 | 0.00 | 42 | 1014.2 |
| 20260830220547 | 96 | 146 | 4.0 | 8.0 | 0.00 | 0.00 | 0.00 | 41 | 1014.2 |
| 20260830220112 | 96 | 110 | 2.0 | 8.0 | 0.00 | 0.00 | 0.00 | 43 | 1014.3 |
| 20260830215547 | 94 | 99 | 3.0 | 8.0 | 0.00 | 0.00 | 0.00 | 43 | 1014.3 |
| 20260830215050 | 95 | 154 | 3.0 | 8.0 | 0.00 | 0.00 | 0.00 | 44 | 1014.3 |
| 20260830214603 | 97 | 83 | 2.0 | 9.0 | 0.00 | 0.00 | 0.00 | 43 | 1014.3 |
| 20260830214046 | 97 | 157 | 3.0 | 9.0 | 0.00 | 0.00 | 0.00 | 43 | 1014.4 |
| 20260830213549 | 97 | 159 | 2.0 | 11.0 | 0.00 | 0.00 | 0.00 | 43 | 1014.4 |
| 20260830213107 | 96 | 126 | 5.0 | 11.0 | 0.00 | 0.00 | 0.00 | 42 | 1014.5 |
| 20260830212552 | 96 | 191 | 4.0 | 11.0 | 0.00 | 0.00 | 0.00 | 44 | 1014.6 |
| 20260830212048 | 95 | 208 | 4.0 | 12.0 | 0.00 | 0.00 | 0.00 | 45 | 1014.6 |
| 20260830211556 | 95 | 197 | 6.0 | 12.0 | 0.00 | 0.00 | 0.00 | 44 | 1014.8 |
| 20260830211048 | 95 | 161 | 4.0 | 10.0 | 0.00 | 0.00 | 0.00 | 45 | 1014.8 |
| 20260830210547 | 95 | 192 | 4.0 | 9.0 | 0.00 | 0.00 | 0.00 | 45 | 1014.9 |
| 20260830210104 | 94 | 174 | 3.0 | 10.0 | 0.00 | 0.00 | 0.00 | 45 | 1015.0 |
| 20260830205549 | 94 | 190 | 3.0 | 12.0 | 0.00 | 0.00 | 0.00 | 45 | 1015.3 |
| 20260830205051 | 92 | 143 | 5.0 | 12.0 | 0.00 | 0.00 | 0.00 | 47 | 1015.4 |
| 20260830204602 | 94 | 159 | 4.0 | 12.0 | 0.00 | 0.00 | 0.00 | 45 | 1015.5 |
| 20260830204047 | 95 | 166 | 3.0 | 12.0 | 0.00 | 0.00 | 0.00 | 43 | 1015.4 |
| 20260830203546 | 95 | 141 | 4.0 | 11.0 | 0.00 | 0.00 | 0.00 | 46 | 1015.6 |
| 20260830203100 | 95 | 159 | 4.0 | 11.0 | 0.00 | 0.00 | 0.00 | 44 | 1015.7 |
| 20260830202549 | 95 | 140 | 5.0 | 11.0 | 0.00 | 0.00 | 0.00 | 45 | 1015.7 |
| 20260830202046 | 95 | 162 | 4.0 | 11.0 | 0.00 | 0.00 | 0.00 | 44 | 1015.8 |
| 20260830201556 | 95 | 207 | 4.0 | 11.0 | 0.00 | 0.00 | 0.00 | 46 | 1015.9 |
| 20260830201046 | 95 | 55 | 3.0 | 10.0 | 0.00 | 0.00 | 0.00 | 44 | 1015.9 |
| 20260830200546 | 95 | 184 | 4.0 | 14.0 | 0.00 | 0.00 | 0.00 | 46 | 1016.1 |
| 20260830200055 | 94 | 130 | 3.0 | 14.0 | 0.00 | 0.00 | 0.00 | 46 | 1016.1 |
| 20260830195547 | 93 | 152 | 2.0 | 11.0 | 0.00 | 0.00 | 0.00 | 48 | 1016.1 |
| 20260830195048 | 92 | 138 | 4.0 | 11.0 | 0.00 | 0.00 | 0.00 | 48 | 1016.3 |
| 20260830194612 | 92 | 190 | 2.0 | 13.0 | 0.00 | 0.00 | 0.00 | 48 | 1016.4 |
| 20260830194049 | 94 | 148 | 5.0 | 13.0 | 0.00 | 0.00 | 0.00 | 49 | 1016.6 |
| 20260830193546 | 93 | 169 | 4.0 | 14.0 | 0.00 | 0.00 | 0.00 | 48 | 1016.7 |
| 20260830193057 | 93 | 147 | 5.0 | 14.0 | 0.00 | 0.00 | 0.00 | 48 | 1016.8 |
| 20260830192548 | 94 | 150 | 6.0 | 11.0 | 0.00 | 0.00 | 0.00 | 49 | 1016.8 |
| 20260830192049 | 92 | 187 | 5.0 | 10.0 | 0.00 | 0.00 | 0.00 | 50 | 1016.8 |
| 20260830191601 | 94 | 157 | 3.0 | 9.0 | 0.00 | 0.00 | 0.00 | 47 | 1016.9 |
| 20260830191049 | 93 | 153 | 3.0 | 11.0 | 0.00 | 0.00 | 0.00 | 49 | 1016.9 |
| 20260830190549 | 93 | 178 | 6.0 | 12.0 | 0.00 | 0.00 | 0.00 | 47 | 1017.1 |
| 20260830185549 | 93 | 175 | 3.0 | 9.0 | 0.00 | 0.00 | 0.00 | 49 | 1017.2 |
| 20260830185047 | 94 | 153 | 3.0 | 8.0 | 0.00 | 0.00 | 0.00 | 48 | 1017.2 |
| 20260830184557 | 94 | 162 | 3.0 | 9.0 | 0.00 | 0.00 | 0.00 | 49 | 1017.3 |
| 20260830184049 | 93 | 172 | 3.0 | 10.0 | 0.00 | 0.00 | 0.00 | 50 | 1017.4 |
| 20260830183548 | 93 | 148 | 5.0 | 11.0 | 0.00 | 0.00 | 0.00 | 51 | 1017.5 |
| 20260830183101 | 92 | 150 | 5.0 | 11.0 | 0.00 | 0.00 | 0.00 | 49 | 1017.6 |
| 20260830182546 | 92 | 146 | 4.0 | 10.0 | 0.00 | 0.00 | 0.00 | 50 | 1017.7 |
| 20260830182047 | 90 | 188 | 2.0 | 6.0 | 0.00 | 0.00 | 0.00 | 54 | 1017.8 |
| 20260830181559 | 91 | 164 | 1.0 | 11.0 | 0.00 | 0.00 | 0.00 | 52 | 1017.9 |
| 20260830181048 | 91 | 177 | 5.0 | 12.0 | 0.00 | 0.00 | 0.00 | 53 | 1017.9 |
| 20260830180549 | 90 | 119 | 5.0 | 12.0 | 0.00 | 0.00 | 0.00 | 53 | 1018.0 |
| 20260830180059 | 91 | 72 | 4.0 | 10.0 | 0.00 | 0.00 | 0.00 | 55 | 1018.1 |
| 20260830175546 | 90 | 55 | 4.0 | 11.0 | 0.00 | 0.00 | 0.00 | 55 | 1018.2 |
| 20260830175047 | 89 | 191 | 2.0 | 11.0 | 0.00 | 0.00 | 0.00 | 53 | 1018.3 |
| 20260830174616 | 92 | 143 | 3.0 | 8.0 | 0.00 | 0.00 | 0.00 | 53 | 1018.4 |
| 20260830174046 | 92 | 173 | 3.0 | 7.0 | 0.00 | 0.00 | 0.00 | 54 | 1018.4 |
| 20260830173548 | 89 | 146 | 3.0 | 9.0 | 0.00 | 0.00 | 0.00 | 57 | 1018.5 |
| 20260830173102 | 89 | 212 | 2.0 | 9.0 | 0.00 | 0.00 | 0.00 | 57 | 1018.6 |
| 20260830172546 | 89 | 155 | 4.0 | 9.0 | 0.00 | 0.00 | 0.00 | 56 | 1018.6 |
| 20260830172048 | 89 | 200 | 3.0 | 8.0 | 0.00 | 0.00 | 0.00 | 57 | 1018.6 |
| 20260830171607 | 88 | 132 | 2.0 | 11.0 | 0.00 | 0.00 | 0.00 | 57 | 1018.7 |
| 20260830171052 | 88 | 180 | 3.0 | 11.0 | 0.00 | 0.00 | 0.00 | 58 | 1018.7 |
| 20260830170547 | 90 | 170 | 3.0 | 9.0 | 0.00 | 0.00 | 0.00 | 55 | 1018.7 |
| 20260830170057 | 90 | 178 | 4.0 | 9.0 | 0.00 | 0.00 | 0.00 | 55 | 1018.8 |
| 20260830165547 | 88 | 154 | 3.0 | 12.0 | 0.00 | 0.00 | 0.00 | 60 | 1018.8 |
| 20260830165047 | 88 | 226 | 2.0 | 12.0 | 0.00 | 0.00 | 0.00 | 59 | 1018.9 |
| 20260830164600 | 88 | 154 | 3.0 | 10.0 | 0.00 | 0.00 | 0.00 | 62 | 1018.9 |
| 20260830164047 | 87 | 277 | 3.0 | 11.0 | 0.00 | 0.00 | 0.00 | 60 | 1018.9 |
| 20260830163548 | 87 | 148 | 5.0 | 11.0 | 0.00 | 0.00 | 0.00 | 61 | 1019.0 |
| 20260830163101 | 87 | 159 | 3.0 | 8.0 | 0.00 | 0.00 | 0.00 | 61 | 1018.9 |
| 20260830162553 | 87 | 159 | 3.0 | 8.0 | 0.00 | 0.00 | 0.00 | 61 | 1018.9 |
| 20260830162046 | 86 | 188 | 3.0 | 8.0 | 0.00 | 0.00 | 0.00 | 62 | 1018.9 |
| 20260830161555 | 87 | 203 | 4.0 | 8.0 | 0.00 | 0.00 | 0.00 | 61 | 1019.0 |
| 20260830161050 | 86 | 188 | 3.0 | 8.0 | 0.00 | 0.00 | 0.00 | 63 | 1019.0 |
| 20260830160548 | 86 | 136 | 3.0 | 9.0 | 0.00 | 0.00 | 0.00 | 63 | 1019.0 |
| 20260830160112 | 86 | 0 | 4.0 | 9.0 | 0.00 | 0.00 | 0.00 | 64 | 1019.0 |
| 20260830155546 | 86 | 140 | 3.0 | 9.0 | 0.00 | 0.00 | 0.00 | 65 | 1019.0 |
| 20260830155047 | 85 | 223 | 5.0 | 10.0 | 0.00 | 0.00 | 0.00 | 64 | 1019.0 |
| 20260830154600 | 86 | 206 | 4.0 | 11.0 | 0.00 | 0.00 | 0.00 | 66 | 1018.9 |
| 20260830154046 | 85 | 200 | 5.0 | 11.0 | 0.00 | 0.00 | 0.00 | 66 | 1018.9 |
| 20260830153546 | 84 | 173 | 5.0 | 11.0 | 0.00 | 0.00 | 0.00 | 68 | 1018.8 |
| 20260830153100 | 84 | 163 | 4.0 | 10.0 | 0.00 | 0.00 | 0.00 | 70 | 1018.9 |
| 20260830152546 | 84 | 154 | 4.0 | 10.0 | 0.00 | 0.00 | 0.00 | 69 | 1018.8 |
| 20260830152046 | 84 | 177 | 3.0 | 10.0 | 0.00 | 0.00 | 0.00 | 71 | 1018.8 |
| 20260830151558 | 83 | 170 | 4.0 | 12.0 | 0.00 | 0.00 | 0.00 | 73 | 1018.9 |
| 20260830151047 | 83 | 175 | 4.0 | 12.0 | 0.00 | 0.00 | 0.00 | 71 | 1018.7 |
| 20260830150551 | 83 | 168 | 3.0 | 8.0 | 0.00 | 0.00 | 0.00 | 74 | 1018.7 |
| 20260830150055 | 82 | 157 | 3.0 | 9.0 | 0.00 | 0.00 | 0.00 | 76 | 1018.7 |
| 20260830145547 | 81 | 202 | 4.0 | 9.0 | 0.00 | 0.00 | 0.00 | 77 | 1018.8 |
| 20260830145051 | 81 | 196 | 3.0 | 7.0 | 0.00 | 0.00 | 0.00 | 79 | 1018.8 |
| 20260830144606 | 80 | 165 | 3.0 | 9.0 | 0.00 | 0.00 | 0.00 | 80 | 1018.7 |
| 20260830144046 | 80 | 185 | 3.0 | 9.0 | 0.00 | 0.00 | 0.00 | 81 | 1018.8 |
| 20260830143547 | 80 | 164 | 4.0 | 8.0 | 0.00 | 0.00 | 0.00 | 82 | 1018.8 |
| 20260830143057 | 79 | 117 | 3.0 | 7.0 | 0.00 | 0.00 | 0.00 | 85 | 1018.8 |
| 20260830142548 | 79 | 197 | 3.0 | 9.0 | 0.00 | 0.00 | 0.00 | 86 | 1018.9 |
| 20260830142048 | 78 | 240 | 3.0 | 9.0 | 0.00 | 0.00 | 0.00 | 88 | 1018.8 |
| 20260830141554 | 78 | 140 | 2.0 | 6.0 | 0.00 | 0.00 | 0.00 | 90 | 1018.7 |
| 20260830141046 | 77 | 254 | 3.0 | 6.0 | 0.00 | 0.00 | 0.00 | 90 | 1018.6 |
| 20260830140547 | 77 | 145 | 1.0 | 5.0 | 0.00 | 0.00 | 0.00 | 91 | 1018.6 |
| 20260830140104 | 76 | 175 | 2.0 | 7.0 | 0.00 | 0.00 | 0.00 | 91 | 1018.7 |
| 20260830135546 | 76 | 230 | 2.0 | 8.0 | 0.00 | 0.00 | 0.00 | 92 | 1018.6 |
| 20260830135049 | 76 | 225 | 3.0 | 8.0 | 0.00 | 0.00 | 0.00 | 92 | 1018.6 |
| 20260830134606 | 76 | 231 | 1.0 | 5.0 | 0.00 | 0.00 | 0.00 | 92 | 1018.6 |
| 20260830134050 | 75 | 0 | 2.0 | 5.0 | 0.00 | 0.00 | 0.00 | 92 | 1018.5 |
| 20260830133546 | 75 | 177 | 1.0 | 5.0 | 0.00 | 0.00 | 0.00 | 92 | 1018.6 |
| 20260830133058 | 75 | 170 | 2.0 | 5.0 | 0.00 | 0.00 | 0.00 | 92 | 1018.5 |
| 20260830132546 | 75 | 128 | 2.0 | 5.0 | 0.00 | 0.00 | 0.00 | 92 | 1018.4 |
| 20260830132046 | 74 | 155 | 2.0 | 5.0 | 0.00 | 0.00 | 0.00 | 92 | 1018.3 |
| 20260830131557 | 74 | 125 | 1.0 | 4.0 | 0.00 | 0.00 | 0.00 | 92 | 1018.2 |
| 20260830131046 | 74 | 227 | 0.0 | 1.0 | 0.00 | 0.00 | 0.00 | 92 | 1018.2 |
| 20260830130546 | 73 | 0 | 0.0 | 0.0 | 0.00 | 0.00 | 0.00 | 91 | 1018.2 |
| 20260830130109 | 73 | 0 | 0.0 | 1.0 | 0.00 | 0.00 | 0.00 | 91 | 1018.2 |
| 20260830125548 | 73 | 0 | 0.0 | 1.0 | 0.00 | 0.00 | 0.00 | 91 | 1018.2 |
| 20260830125046 | 73 | 0 | 0.0 | 1.0 | 0.00 | 0.00 | 0.00 | 91 | 1018.1 |
| 20260830124558 | 73 | 0 | 0.0 | 0.0 | 0.00 | 0.00 | 0.00 | 91 | 1018.1 |
| 20260830124047 | 73 | 0 | 0.0 | 0.0 | 0.00 | 0.00 | 0.00 | 91 | 1018.1 |
| 20260830123549 | 73 | 0 | 0.0 | 0.0 | 0.00 | 0.00 | 0.00 | 91 | 1018.1 |
| 20260830123059 | 73 | 0 | 0.0 | 1.0 | 0.00 | 0.00 | 0.00 | 90 | 1018.0 |
| 20260830122548 | 73 | 0 | 0.0 | 1.0 | 0.00 | 0.00 | 0.00 | 90 | 1018.0 |
| 20260830122050 | 73 | 0 | 0.0 | 1.0 | 0.00 | 0.00 | 0.00 | 90 | 1017.8 |
| 20260830121607 | 73 | 0 | 0.0 | 2.0 | 0.00 | 0.00 | 0.00 | 90 | 1017.8 |
| 20260830121049 | 73 | 0 | 0.0 | 2.0 | 0.00 | 0.00 | 0.00 | 90 | 1017.7 |
| 20260830120546 | 73 | 0 | 0.0 | 0.0 | 0.00 | 0.00 | 0.00 | 90 | 1017.7 |
| 20260830120059 | 73 | 0 | 0.0 | 2.0 | 0.00 | 0.00 | 0.00 | 90 | 1017.7 |
| 20260830115547 | 73 | 0 | 0.0 | 2.0 | 0.00 | 0.00 | 0.00 | 90 | 1017.8 |
| 20260830115047 | 73 | 0 | 0.0 | 2.0 | 0.00 | 0.00 | 0.00 | 90 | 1017.7 |
| 20260830114606 | 73 | 0 | 0.0 | 2.0 | 0.00 | 0.00 | 0.00 | 89 | 1017.7 |
| 20260830114050 | 73 | 0 | 0.0 | 2.0 | 0.00 | 0.00 | 0.00 | 89 | 1017.7 |
| 20260830113546 | 73 | 0 | 0.0 | 0.0 | 0.00 | 0.00 | 0.00 | 89 | 1017.8 |
| 20260830113059 | 73 | 0 | 0.0 | 0.0 | 0.00 | 0.00 | 0.00 | 89 | 1017.7 |
| 20260830112546 | 74 | 0 | 0.0 | 0.0 | 0.00 | 0.00 | 0.00 | 89 | 1017.7 |
| 20260830112046 | 74 | 0 | 0.0 | 0.0 | 0.00 | 0.00 | 0.00 | 89 | 1017.7 |
| 20260830111557 | 74 | 0 | 0.0 | 2.0 | 0.00 | 0.00 | 0.00 | 89 | 1017.7 |
| 20260830111050 | 74 | 0 | 0.0 | 2.0 | 0.00 | 0.00 | 0.00 | 89 | 1017.6 |
| 20260830110549 | 74 | 216 | 0.0 | 2.0 | 0.00 | 0.00 | 0.00 | 89 | 1017.5 |